Time,TemperatureF,DewpointF,PressureIn,WindDirection,WindDirectionDegrees,WindSpeedMPH,WindSpeedGustMPH,Humidity,HourlyPrecipIn,Conditions,Clouds,dailyrainin,SoftwareType,DateUTC
2013-03-04 00:00:00,23.3,18.6,30.04,West,278,0.0,0.0,82,0.00,,,0.00,vanprod-2.5,2013-03-04 05:00:00,
2013-03-04 00:05:00,23.1,18.7,30.04,West,278,0.0,0.0,83,0.00,,,0.00,vanprod-2.5,2013-03-04 05:05:00,
2013-03-04 00:10:00,22.9,18.8,30.04,West,277,0.0,0.0,84,0.00,,,0.00,vanprod-2.5,2013-03-04 05:10:00,
2013-03-04 00:15:00,23.0,18.9,30.04,West,277,0.0,1.0,84,0.00,,,0.00,vanprod-2.5,2013-03-04 05:15:00,
2013-03-04 00:20:00,22.9,18.8,30.05,West,277,0.0,1.0,84,0.00,,,0.00,vanprod-2.5,2013-03-04 05:20:00,
2013-03-04 00:25:00,22.9,19.1,30.05,West,277,0.0,0.0,85,0.00,,,0.00,vanprod-2.5,2013-03-04 05:25:00,
2013-03-04 00:30:00,22.8,19.0,30.05,West,277,0.0,0.0,85,0.00,,,0.00,vanprod-2.5,2013-03-04 05:30:00,
2013-03-04 00:35:00,22.6,18.8,30.05,West,277,0.0,0.0,85,0.00,,,0.00,vanprod-2.5,2013-03-04 05:35:00,
2013-03-04 00:40:00,22.4,18.6,30.05,West,277,0.0,0.0,85,0.00,,,0.00,vanprod-2.5,2013-03-04 05:40:00,
2013-03-04 00:45:00,22.1,18.6,30.05,West,277,0.0,0.0,86,0.00,,,0.00,vanprod-2.5,2013-03-04 05:45:00,
2013-03-04 00:50:00,22.0,18.7,30.05,West,277,0.0,0.0,87,0.00,,,0.00,vanprod-2.5,2013-03-04 05:50:00,
2013-03-04 00:55:00,22.1,18.8,30.05,West,278,0.0,0.0,87,0.00,,,0.00,vanprod-2.5,2013-03-04 05:55:00,
2013-03-04 01:00:00,21.8,18.3,30.05,West,278,0.0,0.0,86,0.00,,,0.00,vanprod-2.5,2013-03-04 06:00:00,
2013-03-04 01:05:00,21.6,18.6,30.05,West,278,0.0,0.0,88,0.00,,,0.00,vanprod-2.5,2013-03-04 06:05:00,
2013-03-04 01:10:00,21.6,18.6,30.05,West,278,0.0,0.0,88,0.00,,,0.00,vanprod-2.5,2013-03-04 06:10:00,
2013-03-04 01:15:00,21.3,18.0,30.05,West,278,0.0,0.0,87,0.00,,,0.00,vanprod-2.5,2013-03-04 06:15:00,
2013-03-04 01:20:00,20.9,17.9,30.06,West,278,0.0,0.0,88,0.00,,,0.00,vanprod-2.5,2013-03-04 06:20:00,
2013-03-04 01:25:00,20.6,17.6,30.06,West,278,0.0,0.0,88,0.00,,,0.00,vanprod-2.5,2013-03-04 06:25:00,
2013-03-04 01:30:00,20.8,18.3,30.06,West,278,0.0,0.0,90,0.00,,,0.00,vanprod-2.5,2013-03-04 06:30:00,
2013-03-04 01:35:00,21.1,18.6,30.06,West,278,0.0,0.0,90,0.00,,,0.00,vanprod-2.5,2013-03-04 06:35:00,
2013-03-04 01:40:00,21.2,18.5,30.06,West,278,0.0,0.0,89,0.00,,,0.00,vanprod-2.5,2013-03-04 06:40:00,
2013-03-04 01:45:00,21.1,18.6,30.06,West,278,0.0,0.0,90,0.00,,,0.00,vanprod-2.5,2013-03-04 06:45:00,
2013-03-04 01:50:00,21.1,18.4,30.07,West,278,0.0,0.0,89,0.00,,,0.00,vanprod-2.5,2013-03-04 06:50:00,
2013-03-04 01:55:00,21.0,18.3,30.06,West,278,0.0,0.0,89,0.00,,,0.00,vanprod-2.5,2013-03-04 06:55:00,
2013-03-04 02:00:00,20.9,18.2,30.06,West,278,0.0,0.0,89,0.00,,,0.00,vanprod-2.5,2013-03-04 07:00:00,
2013-03-04 02:05:00,20.8,18.3,30.06,West,278,0.0,0.0,90,0.00,,,0.00,vanprod-2.5,2013-03-04 07:05:00,
2013-03-04 02:10:00,20.9,18.4,30.06,West,278,0.0,0.0,90,0.00,,,0.00,vanprod-2.5,2013-03-04 07:10:00,
2013-03-04 02:15:00,20.7,18.0,30.06,West,278,0.0,0.0,89,0.00,,,0.00,vanprod-2.5,2013-03-04 07:15:00,
2013-03-04 02:20:00,20.6,18.1,30.06,West,278,0.0,0.0,90,0.00,,,0.00,vanprod-2.5,2013-03-04 07:20:00,
2013-03-04 02:25:00,20.6,18.4,30.06,West,278,0.0,0.0,91,0.00,,,0.00,vanprod-2.5,2013-03-04 07:25:00,
2013-03-04 02:30:00,20.5,18.0,30.06,West,278,0.0,0.0,90,0.00,,,0.00,vanprod-2.5,2013-03-04 07:30:00,
2013-03-04 02:35:00,20.3,17.8,30.06,West,278,0.0,0.0,90,0.00,,,0.00,vanprod-2.5,2013-03-04 07:35:00,
2013-03-04 02:40:00,20.0,17.5,30.06,West,278,0.0,0.0,90,0.00,,,0.00,vanprod-2.5,2013-03-04 07:40:00,
2013-03-04 02:45:00,20.1,18.2,30.05,West,278,0.0,0.0,92,0.00,,,0.00,vanprod-2.5,2013-03-04 07:45:00,
2013-03-04 02:50:00,20.4,18.5,30.06,West,278,0.0,0.0,92,0.00,,,0.00,vanprod-2.5,2013-03-04 07:50:00,
2013-03-04 02:55:00,20.5,18.5,30.06,West,278,0.0,0.0,92,0.00,,,0.00,vanprod-2.5,2013-03-04 07:55:00,
2013-03-04 03:00:00,20.5,18.5,30.06,West,278,0.0,0.0,92,0.00,,,0.00,vanprod-2.5,2013-03-04 08:00:00,
2013-03-04 03:05:00,20.3,18.1,30.06,West,278,0.0,0.0,91,0.00,,,0.00,vanprod-2.5,2013-03-04 08:05:00,
2013-03-04 03:10:00,20.1,18.2,30.06,West,278,0.0,0.0,92,0.00,,,0.00,vanprod-2.5,2013-03-04 08:10:00,
2013-03-04 03:15:00,19.9,18.0,30.06,West,278,0.0,0.0,92,0.00,,,0.00,vanprod-2.5,2013-03-04 08:15:00,
2013-03-04 03:20:00,19.8,17.9,30.07,West,278,0.0,0.0,92,0.00,,,0.00,vanprod-2.5,2013-03-04 08:20:00,
2013-03-04 03:25:00,19.8,17.9,30.07,West,278,0.0,0.0,92,0.00,,,0.00,vanprod-2.5,2013-03-04 08:25:00,
2013-03-04 03:30:00,19.6,17.7,30.07,West,278,0.0,0.0,92,0.00,,,0.00,vanprod-2.5,2013-03-04 08:30:00,
2013-03-04 03:35:00,19.5,17.6,30.07,West,278,0.0,0.0,92,0.00,,,0.00,vanprod-2.5,2013-03-04 08:35:00,
2013-03-04 03:40:00,19.3,17.4,30.07,West,278,0.0,0.0,92,0.00,,,0.00,vanprod-2.5,2013-03-04 08:40:00,
2013-03-04 03:45:00,19.1,17.2,30.07,West,278,0.0,0.0,92,0.00,,,0.00,vanprod-2.5,2013-03-04 08:45:00,
2013-03-04 03:50:00,18.9,17.0,30.07,West,278,0.0,0.0,92,0.00,,,0.00,vanprod-2.5,2013-03-04 08:50:00,
2013-03-04 03:55:00,18.8,17.1,30.07,West,278,0.0,0.0,93,0.00,,,0.00,vanprod-2.5,2013-03-04 08:55:00,
2013-03-04 04:00:00,18.6,16.7,30.07,West,278,0.0,0.0,92,0.00,,,0.00,vanprod-2.5,2013-03-04 09:00:00,
2013-03-04 04:05:00,18.5,16.8,30.07,West,278,0.0,0.0,93,0.00,,,0.00,vanprod-2.5,2013-03-04 09:05:00,
2013-03-04 04:10:00,18.5,16.8,30.07,West,278,0.0,0.0,93,0.00,,,0.00,vanprod-2.5,2013-03-04 09:10:00,
2013-03-04 04:15:00,18.4,16.7,30.08,West,278,0.0,0.0,93,0.00,,,0.00,vanprod-2.5,2013-03-04 09:15:00,
2013-03-04 04:20:00,18.4,16.7,30.08,West,278,0.0,0.0,93,0.00,,,0.00,vanprod-2.5,2013-03-04 09:20:00,
2013-03-04 04:25:00,18.5,17.1,30.07,West,278,0.0,0.0,94,0.00,,,0.00,vanprod-2.5,2013-03-04 09:25:00,
2013-03-04 04:30:00,18.6,17.2,30.08,West,278,0.0,0.0,94,0.00,,,0.00,vanprod-2.5,2013-03-04 09:30:00,
2013-03-04 04:35:00,18.4,17.0,30.07,West,278,0.0,0.0,94,0.00,,,0.00,vanprod-2.5,2013-03-04 09:35:00,
2013-03-04 04:40:00,18.2,16.5,30.07,West,278,0.0,0.0,93,0.00,,,0.00,vanprod-2.5,2013-03-04 09:40:00,
2013-03-04 04:45:00,18.0,16.6,30.08,West,278,0.0,0.0,94,0.00,,,0.00,vanprod-2.5,2013-03-04 09:45:00,
2013-03-04 04:50:00,18.2,16.8,30.08,West,278,0.0,0.0,94,0.00,,,0.00,vanprod-2.5,2013-03-04 09:50:00,
2013-03-04 04:55:00,18.5,17.3,30.08,West,278,0.0,0.0,95,0.00,,,0.00,vanprod-2.5,2013-03-04 09:55:00,
2013-03-04 05:00:00,18.8,17.6,30.08,West,278,0.0,0.0,95,0.00,,,0.00,vanprod-2.5,2013-03-04 10:00:00,
2013-03-04 05:05:00,18.9,17.7,30.08,West,278,0.0,0.0,95,0.00,,,0.00,vanprod-2.5,2013-03-04 10:05:00,
2013-03-04 05:10:00,18.9,17.7,30.08,West,278,0.0,0.0,95,0.00,,,0.00,vanprod-2.5,2013-03-04 10:10:00,
2013-03-04 05:15:00,18.9,17.5,30.08,West,278,0.0,0.0,94,0.00,,,0.00,vanprod-2.5,2013-03-04 10:15:00,
2013-03-04 05:20:00,19.1,17.9,30.08,West,278,0.0,0.0,95,0.00,,,0.00,vanprod-2.5,2013-03-04 10:20:00,
2013-03-04 05:25:00,19.2,18.0,30.09,West,278,0.0,0.0,95,0.00,,,0.00,vanprod-2.5,2013-03-04 10:25:00,
2013-03-04 05:30:00,19.2,18.0,30.09,West,278,0.0,0.0,95,0.00,,,0.00,vanprod-2.5,2013-03-04 10:30:00,
2013-03-04 05:35:00,19.2,17.8,30.09,West,278,0.0,0.0,94,0.00,,,0.00,vanprod-2.5,2013-03-04 10:35:00,
2013-03-04 05:40:00,19.2,17.8,30.09,West,278,0.0,0.0,94,0.00,,,0.00,vanprod-2.5,2013-03-04 10:40:00,
2013-03-04 05:45:00,19.0,17.6,30.09,West,278,0.0,0.0,94,0.00,,,0.00,vanprod-2.5,2013-03-04 10:45:00,
2013-03-04 05:50:00,18.8,17.4,30.10,West,277,0.0,0.0,94,0.00,,,0.00,vanprod-2.5,2013-03-04 10:50:00,
2013-03-04 05:55:00,18.8,17.4,30.10,West,277,0.0,0.0,94,0.00,,,0.00,vanprod-2.5,2013-03-04 10:55:00,
2013-03-04 06:00:00,18.8,17.4,30.10,West,277,0.0,0.0,94,0.00,,,0.00,vanprod-2.5,2013-03-04 11:00:00,
2013-03-04 06:05:00,18.8,17.4,30.10,West,277,0.0,0.0,94,0.00,,,0.00,vanprod-2.5,2013-03-04 11:05:00,
2013-03-04 06:10:00,18.5,17.1,30.10,West,277,0.0,0.0,94,0.00,,,0.00,vanprod-2.5,2013-03-04 11:10:00,
2013-03-04 06:15:00,18.3,16.9,30.11,West,277,0.0,0.0,94,0.00,,,0.00,vanprod-2.5,2013-03-04 11:15:00,
2013-03-04 06:20:00,18.4,17.0,30.10,WSW,241,0.0,0.0,94,0.00,,,0.00,vanprod-2.5,2013-03-04 11:20:00,
2013-03-04 06:25:00,18.6,17.4,30.10,WSW,241,0.0,0.0,95,0.00,,,0.00,vanprod-2.5,2013-03-04 11:25:00,
2013-03-04 06:30:00,18.8,17.6,30.10,WSW,241,0.0,0.0,95,0.00,,,0.00,vanprod-2.5,2013-03-04 11:30:00,
2013-03-04 06:35:00,18.8,17.6,30.11,WSW,241,0.0,0.0,95,0.00,,,0.00,vanprod-2.5,2013-03-04 11:35:00,
2013-03-04 06:40:00,18.7,17.5,30.11,WSW,241,0.0,0.0,95,0.00,,,0.00,vanprod-2.5,2013-03-04 11:40:00,
2013-03-04 06:45:00,18.5,17.1,30.11,WSW,241,0.0,0.0,94,0.00,,,0.00,vanprod-2.5,2013-03-04 11:45:00,
2013-03-04 06:50:00,18.4,17.0,30.11,WSW,241,0.0,0.0,94,0.00,,,0.00,vanprod-2.5,2013-03-04 11:50:00,
2013-03-04 06:55:00,18.4,17.2,30.11,WSW,241,0.0,0.0,95,0.00,,,0.00,vanprod-2.5,2013-03-04 11:55:00,
2013-03-04 07:00:00,18.4,17.2,30.11,WSW,241,0.0,0.0,95,0.00,,,0.00,vanprod-2.5,2013-03-04 12:00:00,
2013-03-04 07:05:00,18.4,17.2,30.11,WSW,241,0.0,0.0,95,0.00,,,0.00,vanprod-2.5,2013-03-04 12:05:00,
2013-03-04 07:10:00,18.5,17.3,30.11,WSW,241,0.0,0.0,95,0.00,,,0.00,vanprod-2.5,2013-03-04 12:10:00,
2013-03-04 07:16:00,18.6,17.4,30.11,WSW,241,0.0,0.0,95,0.00,,,0.00,vanprod-2.5,2013-03-04 12:16:00,
2013-03-04 07:21:00,18.7,17.5,30.11,WSW,242,0.0,0.0,95,0.00,,,0.00,vanprod-2.5,2013-03-04 12:21:00,
2013-03-04 07:26:00,18.9,17.7,30.11,WSW,241,0.0,0.0,95,0.00,,,0.00,vanprod-2.5,2013-03-04 12:26:00,
2013-03-04 07:31:00,19.0,17.8,30.11,WSW,241,0.0,0.0,95,0.00,,,0.00,vanprod-2.5,2013-03-04 12:31:00,
2013-03-04 07:36:00,19.2,18.0,30.11,WSW,241,0.0,0.0,95,0.00,,,0.00,vanprod-2.5,2013-03-04 12:36:00,
2013-03-04 07:41:00,19.2,18.0,30.11,WSW,241,0.0,0.0,95,0.00,,,0.00,vanprod-2.5,2013-03-04 12:41:00,
2013-03-04 07:46:00,19.5,18.3,30.11,WSW,241,0.0,0.0,95,0.00,,,0.00,vanprod-2.5,2013-03-04 12:46:00,
2013-03-04 07:51:00,19.9,18.7,30.12,WSW,242,0.0,0.0,95,0.00,,,0.00,vanprod-2.5,2013-03-04 12:51:00,
2013-03-04 07:56:00,20.3,19.1,30.12,WSW,241,0.0,0.0,95,0.00,,,0.00,vanprod-2.5,2013-03-04 12:56:00,
2013-03-04 08:01:00,20.8,19.6,30.12,WSW,242,0.0,0.0,95,0.00,,,0.00,vanprod-2.5,2013-03-04 13:01:00,
2013-03-04 08:06:00,21.2,20.0,30.12,WSW,242,0.0,1.0,95,0.00,,,0.00,vanprod-2.5,2013-03-04 13:06:00,
2013-03-04 08:11:00,21.8,20.3,30.12,WSW,249,0.0,0.0,94,0.00,,,0.00,vanprod-2.5,2013-03-04 13:11:00,
2013-03-04 08:16:00,22.3,20.6,30.12,WSW,242,0.0,0.0,93,0.00,,,0.00,vanprod-2.5,2013-03-04 13:16:00,
2013-03-04 08:21:00,22.7,20.5,30.12,WNW,290,0.0,1.0,91,0.00,,,0.00,vanprod-2.5,2013-03-04 13:21:00,
2013-03-04 08:26:00,23.0,20.5,30.12,WNW,288,0.0,0.0,90,0.00,,,0.00,vanprod-2.5,2013-03-04 13:26:00,
2013-03-04 08:31:00,23.3,20.8,30.12,WNW,288,0.0,0.0,90,0.00,,,0.00,vanprod-2.5,2013-03-04 13:31:00,
2013-03-04 08:36:00,23.5,20.7,30.12,WNW,288,0.0,0.0,89,0.00,,,0.00,vanprod-2.5,2013-03-04 13:36:00,
2013-03-04 08:41:00,23.7,20.7,30.13,SW,222,0.0,0.0,88,0.00,,,0.00,vanprod-2.5,2013-03-04 13:41:00,
2013-03-04 08:46:00,24.1,20.8,30.13,SW,224,0.0,0.0,87,0.00,,,0.00,vanprod-2.5,2013-03-04 13:46:00,
2013-03-04 08:51:00,24.5,21.2,30.13,SSE,157,0.0,0.0,87,0.00,,,0.00,vanprod-2.5,2013-03-04 13:51:00,
2013-03-04 08:56:00,24.7,20.6,30.13,SSE,156,0.0,0.0,84,0.00,,,0.00,vanprod-2.5,2013-03-04 13:56:00,
2013-03-04 09:01:00,25.1,21.5,30.13,South,171,0.0,0.0,86,0.00,,,0.00,vanprod-2.5,2013-03-04 14:01:00,
2013-03-04 09:06:00,25.4,21.0,30.13,SSE,158,1.0,1.0,83,0.00,,,0.00,vanprod-2.5,2013-03-04 14:06:00,
2013-03-04 09:11:00,25.7,21.3,30.13,SSE,165,0.0,1.0,83,0.00,,,0.00,vanprod-2.5,2013-03-04 14:11:00,
2013-03-04 09:16:00,26.1,21.7,30.13,SSE,159,1.0,2.0,83,0.00,,,0.00,vanprod-2.5,2013-03-04 14:16:00,
2013-03-04 09:21:00,26.6,22.4,30.13,South,169,1.0,2.0,84,0.00,,,0.00,vanprod-2.5,2013-03-04 14:21:00,
2013-03-04 09:26:00,27.5,23.0,30.13,SSW,213,0.0,1.0,83,0.00,,,0.00,vanprod-2.5,2013-03-04 14:26:00,
2013-03-04 09:31:00,28.2,22.5,30.13,South,187,2.0,3.0,79,0.00,,,0.00,vanprod-2.5,2013-03-04 14:31:00,
2013-03-04 09:36:00,29.0,23.6,30.13,SSW,196,2.0,2.0,80,0.00,,,0.00,vanprod-2.5,2013-03-04 14:36:00,
2013-03-04 09:41:00,29.4,23.1,30.13,South,179,0.0,0.0,77,0.00,,,0.00,vanprod-2.5,2013-03-04 14:41:00,
2013-03-04 09:46:00,29.7,23.4,30.12,WSW,238,1.0,1.0,77,0.00,,,0.00,vanprod-2.5,2013-03-04 14:46:00,
2013-03-04 09:51:00,29.9,23.3,30.12,WSW,239,0.0,1.0,76,0.00,,,0.00,vanprod-2.5,2013-03-04 14:51:00,
2013-03-04 09:56:00,30.0,23.4,30.12,SSW,199,1.0,3.0,76,0.00,,,0.00,vanprod-2.5,2013-03-04 14:56:00,
2013-03-04 10:01:00,30.1,23.5,30.12,SSW,192,3.0,4.0,76,0.00,,,0.00,vanprod-2.5,2013-03-04 15:01:00,
2013-03-04 10:06:00,29.9,23.0,30.12,WSW,248,0.0,1.0,75,0.00,,,0.00,vanprod-2.5,2013-03-04 15:06:00,
2013-03-04 10:11:00,30.7,24.7,30.12,SW,219,1.0,2.0,78,0.00,,,0.00,vanprod-2.5,2013-03-04 15:11:00,
2013-03-04 10:16:00,31.3,24.9,30.11,SW,220,3.0,5.0,77,0.00,,,0.00,vanprod-2.5,2013-03-04 15:16:00,
2013-03-04 10:21:00,31.6,24.0,30.12,SSE,154,1.0,1.0,73,0.00,,,0.00,vanprod-2.5,2013-03-04 15:21:00,
2013-03-04 10:26:00,32.1,25.4,30.12,SW,236,3.0,5.0,76,0.00,,,0.00,vanprod-2.5,2013-03-04 15:26:00,
2013-03-04 10:31:00,32.4,24.4,30.11,SE,135,1.0,2.0,72,0.00,,,0.00,vanprod-2.5,2013-03-04 15:31:00,
2013-03-04 10:36:00,32.4,24.4,30.11,SW,227,1.0,3.0,72,0.00,,,0.00,vanprod-2.5,2013-03-04 15:36:00,
2013-03-04 10:41:00,32.7,24.4,30.11,West,269,2.0,3.0,71,0.00,,,0.00,vanprod-2.5,2013-03-04 15:41:00,
2013-03-04 10:46:00,32.9,23.5,30.11,West,268,1.0,2.0,68,0.00,,,0.00,vanprod-2.5,2013-03-04 15:46:00,
2013-03-04 10:51:00,32.9,23.9,30.11,SSW,192,2.0,3.0,69,0.00,,,0.00,vanprod-2.5,2013-03-04 15:51:00,
2013-03-04 10:56:00,33.1,23.4,30.11,NW,305,2.0,3.0,67,0.00,,,0.00,vanprod-2.5,2013-03-04 15:56:00,
2013-03-04 11:01:00,32.9,23.2,30.11,WNW,293,2.0,2.0,67,0.00,,,0.00,vanprod-2.5,2013-03-04 16:01:00,
2013-03-04 11:06:00,32.8,22.7,30.11,West,265,1.0,1.0,66,0.00,,,0.00,vanprod-2.5,2013-03-04 16:06:00,
2013-03-04 11:11:00,33.1,22.3,30.10,WNW,301,0.0,1.0,64,0.00,,,0.00,vanprod-2.5,2013-03-04 16:11:00,
2013-03-04 11:16:00,33.3,22.5,30.10,SE,127,1.0,3.0,64,0.00,,,0.00,vanprod-2.5,2013-03-04 16:16:00,
2013-03-04 11:21:00,33.8,23.7,30.10,SSE,166,2.0,5.0,66,0.00,,,0.00,vanprod-2.5,2013-03-04 16:21:00,
2013-03-04 11:26:00,34.2,23.3,30.10,SSW,208,3.0,6.0,64,0.00,,,0.00,vanprod-2.5,2013-03-04 16:26:00,
2013-03-04 11:31:00,34.4,23.5,30.10,SW,235,2.0,4.0,64,0.00,,,0.00,vanprod-2.5,2013-03-04 16:31:00,
2013-03-04 11:36:00,34.7,22.6,30.10,South,176,0.0,1.0,61,0.00,,,0.00,vanprod-2.5,2013-03-04 16:36:00,
2013-03-04 11:42:00,35.0,23.7,30.09,West,279,0.0,0.0,63,0.00,,,0.00,vanprod-2.5,2013-03-04 16:42:00,
2013-03-04 11:47:00,35.5,23.8,30.09,SSW,203,2.0,4.0,62,0.00,,,0.00,vanprod-2.5,2013-03-04 16:47:00,
2013-03-04 11:52:00,35.3,22.4,30.09,SSE,160,0.0,0.0,59,0.00,,,0.00,vanprod-2.5,2013-03-04 16:52:00,
2013-03-04 11:57:00,35.5,23.0,30.09,WSW,255,1.0,0.0,60,0.00,,,0.00,vanprod-2.5,2013-03-04 16:57:00,
2013-03-04 12:02:00,35.2,22.7,30.09,WNW,297,1.0,1.0,60,0.00,,,0.00,vanprod-2.5,2013-03-04 17:02:00,
2013-03-04 12:07:00,35.6,22.3,30.09,West,264,1.0,0.0,58,0.00,,,0.00,vanprod-2.5,2013-03-04 17:07:00,
2013-03-04 12:12:00,35.4,22.5,30.09,West,280,0.0,0.0,59,0.00,,,0.00,vanprod-2.5,2013-03-04 17:12:00,
2013-03-04 12:17:00,35.6,23.1,30.09,SE,138,0.0,0.0,60,0.00,,,0.00,vanprod-2.5,2013-03-04 17:17:00,
2013-03-04 12:22:00,36.2,20.3,30.09,ENE,62,2.0,2.0,52,0.00,,,0.00,vanprod-2.5,2013-03-04 17:22:00,
2013-03-04 12:27:00,36.5,23.1,30.09,SSW,199,3.0,4.0,58,0.00,,,0.00,vanprod-2.5,2013-03-04 17:27:00,
2013-03-04 12:32:00,36.4,21.8,30.08,SW,229,2.0,0.0,55,0.00,,,0.00,vanprod-2.5,2013-03-04 17:32:00,
2013-03-04 12:37:00,36.4,22.6,30.08,West,272,1.0,1.0,57,0.00,,,0.00,vanprod-2.5,2013-03-04 17:37:00,
2013-03-04 12:42:00,36.2,22.0,30.08,NE,54,2.0,2.0,56,0.00,,,0.00,vanprod-2.5,2013-03-04 17:42:00,
2013-03-04 12:47:00,36.5,22.3,30.08,SSW,201,0.0,2.0,56,0.00,,,0.00,vanprod-2.5,2013-03-04 17:47:00,
2013-03-04 12:52:00,37.1,22.4,30.07,SSW,192,3.0,3.0,55,0.00,,,0.00,vanprod-2.5,2013-03-04 17:52:00,
2013-03-04 12:57:00,37.5,22.4,30.07,SSE,154,2.0,2.0,54,0.00,,,0.00,vanprod-2.5,2013-03-04 17:57:00,
2013-03-04 13:02:00,37.5,21.9,30.07,WSW,237,2.0,2.0,53,0.01,,,0.01,vanprod-2.5,2013-03-04 18:02:00,
2013-03-04 13:07:00,37.8,23.5,30.07,WNW,285,1.0,1.0,56,0.01,,,0.01,vanprod-2.5,2013-03-04 18:07:00,
2013-03-04 13:12:00,38.1,22.9,30.07,South,181,4.0,4.0,54,0.01,,,0.01,vanprod-2.5,2013-03-04 18:12:00,
2013-03-04 13:17:00,37.9,22.3,30.06,SW,227,1.0,2.0,53,0.01,,,0.01,vanprod-2.5,2013-03-04 18:17:00,
2013-03-04 13:22:00,37.9,24.0,30.06,SSW,192,4.0,4.0,57,0.01,,,0.01,vanprod-2.5,2013-03-04 18:22:00,
2013-03-04 13:27:00,38.0,22.4,30.06,SSE,155,0.0,0.0,53,0.01,,,0.01,vanprod-2.5,2013-03-04 18:27:00,
2013-03-04 13:29:00,38.0,22.8,30.06,ESE,106,0.0,0.0,54,0.01,,,0.01,vanprod-2.5,2013-03-04 18:29:00,
2013-03-04 13:30:00,38.1,22.9,30.06,ESE,108,0.0,1.0,54,0.01,,,0.01,vanprod-2.5,2013-03-04 18:30:00,
2013-03-04 13:35:00,38.3,22.2,30.06,SSW,207,1.0,0.0,52,0.01,,,0.01,vanprod-2.5,2013-03-04 18:35:00,
2013-03-04 13:40:00,38.7,23.9,30.05,SSE,147,0.0,1.0,55,0.01,,,0.01,vanprod-2.5,2013-03-04 18:40:00,
2013-03-04 13:45:00,38.7,22.6,30.05,SSE,159,1.0,3.0,52,0.01,,,0.01,vanprod-2.5,2013-03-04 18:45:00,
2013-03-04 13:50:00,38.5,22.4,30.05,SSE,149,2.0,3.0,52,0.01,,,0.01,vanprod-2.5,2013-03-04 18:50:00,
2013-03-04 13:55:00,39.0,23.3,30.04,SSW,209,2.0,2.0,53,0.00,,,0.01,vanprod-2.5,2013-03-04 18:55:00,
2013-03-04 14:00:00,39.8,25.0,30.04,ESE,120,1.0,4.0,55,0.00,,,0.01,vanprod-2.5,2013-03-04 19:00:00,
2013-03-04 14:05:00,40.0,24.7,30.04,SE,128,1.0,1.0,54,0.00,,,0.01,vanprod-2.5,2013-03-04 19:05:00,
2013-03-04 14:10:00,39.9,23.7,30.04,ESE,111,1.0,0.0,52,0.00,,,0.01,vanprod-2.5,2013-03-04 19:10:00,
2013-03-04 14:15:00,40.1,23.9,30.03,East,84,3.0,3.0,52,0.00,,,0.01,vanprod-2.5,2013-03-04 19:15:00,
2013-03-04 14:20:00,40.1,23.4,30.03,ESE,105,2.0,6.0,51,0.00,,,0.01,vanprod-2.5,2013-03-04 19:20:00,
2013-03-04 14:25:00,40.2,24.0,30.03,SE,138,1.0,1.0,52,0.00,,,0.01,vanprod-2.5,2013-03-04 19:25:00,
2013-03-04 14:30:00,40.4,21.3,30.03,SSE,165,3.0,3.0,46,0.00,,,0.01,vanprod-2.5,2013-03-04 19:30:00,
2013-03-04 14:35:00,40.7,22.6,30.03,SSE,152,2.0,5.0,48,0.00,,,0.01,vanprod-2.5,2013-03-04 19:35:00,
2013-03-04 14:40:00,41.2,24.5,30.03,ESE,121,1.0,1.0,51,0.00,,,0.01,vanprod-2.5,2013-03-04 19:40:00,
2013-03-04 14:45:00,41.6,21.9,30.03,SSE,162,3.0,3.0,45,0.00,,,0.01,vanprod-2.5,2013-03-04 19:45:00,
2013-03-04 14:50:00,41.2,21.5,30.03,South,169,2.0,2.0,45,0.00,,,0.01,vanprod-2.5,2013-03-04 19:50:00,
2013-03-04 14:55:00,41.1,23.4,30.03,SSE,150,1.0,0.0,49,0.00,,,0.01,vanprod-2.5,2013-03-04 19:55:00,
2013-03-04 15:00:00,41.3,21.6,30.03,South,184,2.0,3.0,45,0.00,,,0.01,vanprod-2.5,2013-03-04 20:00:00,
2013-03-04 15:05:00,40.9,21.2,30.02,SE,125,1.0,0.0,45,0.00,,,0.01,vanprod-2.5,2013-03-04 20:05:00,
2013-03-04 15:10:00,41.2,23.5,30.02,SE,135,1.0,1.0,49,0.00,,,0.01,vanprod-2.5,2013-03-04 20:10:00,
2013-03-04 15:15:00,41.1,23.9,30.02,SE,140,2.0,4.0,50,0.00,,,0.01,vanprod-2.5,2013-03-04 20:15:00,
2013-03-04 15:20:00,41.0,23.3,30.02,East,90,2.0,2.0,49,0.00,,,0.01,vanprod-2.5,2013-03-04 20:20:00,
2013-03-04 15:25:00,41.2,24.5,30.02,South,182,2.0,3.0,51,0.00,,,0.01,vanprod-2.5,2013-03-04 20:25:00,
2013-03-04 15:30:00,41.6,24.4,30.02,ESE,122,2.0,3.0,50,0.00,,,0.01,vanprod-2.5,2013-03-04 20:30:00,
2013-03-04 15:35:00,41.6,24.4,30.02,South,175,1.0,0.0,50,0.00,,,0.01,vanprod-2.5,2013-03-04 20:35:00,
2013-03-04 15:40:00,42.2,24.9,30.02,ESE,106,1.0,2.0,50,0.00,,,0.01,vanprod-2.5,2013-03-04 20:40:00,
2013-03-04 15:45:00,41.8,23.1,30.01,SE,139,1.0,0.0,47,0.00,,,0.01,vanprod-2.5,2013-03-04 20:45:00,
2013-03-04 15:50:00,41.4,23.7,30.01,South,180,4.0,4.0,49,0.00,,,0.01,vanprod-2.5,2013-03-04 20:50:00,
2013-03-04 15:55:00,41.4,23.2,30.02,SSW,210,1.0,0.0,48,0.00,,,0.01,vanprod-2.5,2013-03-04 20:55:00,
2013-03-04 16:00:00,41.0,23.3,30.01,SE,142,0.0,0.0,49,0.00,,,0.01,vanprod-2.5,2013-03-04 21:00:00,
2013-03-04 16:05:00,41.1,24.4,30.01,SSW,207,1.0,2.0,51,0.00,,,0.01,vanprod-2.5,2013-03-04 21:05:00,
2013-03-04 16:10:00,41.0,22.8,30.04,ENE,76,3.0,4.0,48,0.00,,,0.01,vanprod-2.5,2013-03-04 21:10:00,
2013-03-04 16:15:00,40.5,22.9,30.04,SE,146,0.0,1.0,49,0.00,,,0.01,vanprod-2.5,2013-03-04 21:15:00,
2013-03-04 16:20:00,40.6,23.0,30.04,South,181,1.0,2.0,49,0.00,,,0.01,vanprod-2.5,2013-03-04 21:20:00,
2013-03-04 16:25:00,40.3,22.7,30.03,SE,141,1.0,2.0,49,0.00,,,0.01,vanprod-2.5,2013-03-04 21:25:00,
2013-03-04 16:30:00,40.3,24.5,30.03,SSE,155,0.0,0.0,53,0.00,,,0.01,vanprod-2.5,2013-03-04 21:30:00,
2013-03-04 16:35:00,40.1,23.4,30.03,SE,146,1.0,0.0,51,0.00,,,0.01,vanprod-2.5,2013-03-04 21:35:00,
2013-03-04 16:40:00,39.9,22.8,30.03,SE,134,1.0,2.0,50,0.00,,,0.01,vanprod-2.5,2013-03-04 21:40:00,
2013-03-04 16:45:00,40.0,23.8,30.03,SSE,157,0.0,1.0,52,0.00,,,0.01,vanprod-2.5,2013-03-04 21:45:00,
2013-03-04 16:50:00,39.8,24.1,30.03,ESE,119,1.0,1.0,53,0.00,,,0.01,vanprod-2.5,2013-03-04 21:50:00,
2013-03-04 16:55:00,39.7,23.1,30.03,South,175,3.0,3.0,51,0.00,,,0.01,vanprod-2.5,2013-03-04 21:55:00,
2013-03-04 17:00:00,39.5,22.9,30.03,SSE,161,3.0,3.0,51,0.00,,,0.01,vanprod-2.5,2013-03-04 22:00:00,
2013-03-04 17:05:00,39.4,23.3,30.03,SE,145,0.0,0.0,52,0.00,,,0.01,vanprod-2.5,2013-03-04 22:05:00,
2013-03-04 17:10:00,39.3,23.2,30.03,SSE,152,2.0,2.0,52,0.00,,,0.01,vanprod-2.5,2013-03-04 22:10:00,
2013-03-04 17:15:00,39.1,23.0,30.03,ESE,121,0.0,0.0,52,0.00,,,0.01,vanprod-2.5,2013-03-04 22:15:00,
2013-03-04 17:20:00,38.9,23.2,30.03,SSE,160,0.0,0.0,53,0.00,,,0.01,vanprod-2.5,2013-03-04 22:20:00,
2013-03-04 17:25:00,38.8,22.7,30.03,SSE,165,2.0,4.0,52,0.00,,,0.01,vanprod-2.5,2013-03-04 22:25:00,
2013-03-04 17:30:00,38.8,23.1,30.03,SE,146,1.0,0.0,53,0.00,,,0.01,vanprod-2.5,2013-03-04 22:30:00,
2013-03-04 17:35:00,38.8,23.6,30.03,SSE,165,1.0,1.0,54,0.00,,,0.01,vanprod-2.5,2013-03-04 22:35:00,
2013-03-04 17:40:00,38.7,23.1,30.03,SSE,147,0.0,1.0,53,0.00,,,0.01,vanprod-2.5,2013-03-04 22:40:00,
2013-03-04 17:45:00,38.6,23.4,30.03,South,169,1.0,1.0,54,0.00,,,0.01,vanprod-2.5,2013-03-04 22:45:00,
2013-03-04 17:50:00,38.6,23.8,30.03,SSE,159,1.0,2.0,55,0.00,,,0.01,vanprod-2.5,2013-03-04 22:50:00,
2013-03-04 17:55:00,38.5,23.8,30.03,SSE,163,1.0,1.0,55,0.00,,,0.01,vanprod-2.5,2013-03-04 22:55:00,
2013-03-04 18:00:00,38.5,24.2,30.04,SSE,157,1.0,0.0,56,0.00,,,0.01,vanprod-2.5,2013-03-04 23:00:00,
2013-03-04 18:05:00,38.4,24.1,30.04,SSE,167,1.0,0.0,56,0.00,,,0.01,vanprod-2.5,2013-03-04 23:05:00,
2013-03-04 18:10:00,38.3,24.4,30.04,SSE,163,1.0,0.0,57,0.00,,,0.01,vanprod-2.5,2013-03-04 23:10:00,
2013-03-04 18:15:00,38.2,24.3,30.04,SSE,151,0.0,0.0,57,0.00,,,0.01,vanprod-2.5,2013-03-04 23:15:00,
2013-03-04 18:20:00,38.1,24.2,30.04,SE,144,1.0,0.0,57,0.00,,,0.01,vanprod-2.5,2013-03-04 23:20:00,
2013-03-04 18:25:00,38.0,24.1,30.04,SE,141,0.0,2.0,57,0.00,,,0.01,vanprod-2.5,2013-03-04 23:25:00,
2013-03-04 18:30:00,37.9,24.5,30.04,SSE,158,0.0,0.0,58,0.00,,,0.01,vanprod-2.5,2013-03-04 23:30:00,
2013-03-04 18:35:00,37.8,23.9,30.04,SE,126,0.0,0.0,57,0.00,,,0.01,vanprod-2.5,2013-03-04 23:35:00,
2013-03-04 18:40:00,37.7,24.3,30.04,SE,126,0.0,0.0,58,0.00,,,0.01,vanprod-2.5,2013-03-04 23:40:00,
2013-03-04 18:45:00,37.6,24.6,30.04,SE,124,0.0,1.0,59,0.00,,,0.01,vanprod-2.5,2013-03-04 23:45:00,
2013-03-04 18:50:00,37.6,24.2,30.03,SE,128,0.0,0.0,58,0.00,,,0.01,vanprod-2.5,2013-03-04 23:50:00,
2013-03-04 18:55:00,37.5,24.1,30.03,ESE,121,0.0,1.0,58,0.00,,,0.01,vanprod-2.5,2013-03-04 23:55:00,
2013-03-04 19:00:00,37.4,24.4,30.03,ESE,117,0.0,0.0,59,0.00,,,0.01,vanprod-2.5,2013-03-05 00:00:00,
2013-03-04 19:05:00,37.3,24.7,30.03,ESE,117,0.0,0.0,60,0.00,,,0.01,vanprod-2.5,2013-03-05 00:05:00,
2013-03-04 19:10:00,37.2,24.6,30.03,ESE,117,0.0,1.0,60,0.00,,,0.01,vanprod-2.5,2013-03-05 00:10:00,
2013-03-04 19:15:00,37.2,25.0,30.03,ESE,117,0.0,0.0,61,0.00,,,0.01,vanprod-2.5,2013-03-05 00:15:00,
2013-03-04 19:20:00,37.1,24.1,30.03,ESE,117,0.0,1.0,59,0.00,,,0.01,vanprod-2.5,2013-03-05 00:20:00,
2013-03-04 19:25:00,37.2,25.0,30.03,SSE,167,0.0,0.0,61,0.00,,,0.01,vanprod-2.5,2013-03-05 00:25:00,
2013-03-04 19:30:00,37.1,24.1,30.03,SE,139,0.0,0.0,59,0.00,,,0.01,vanprod-2.5,2013-03-05 00:30:00,
2013-03-04 19:35:00,37.1,24.5,30.03,SE,139,0.0,1.0,60,0.00,,,0.01,vanprod-2.5,2013-03-05 00:35:00,
2013-03-04 19:40:00,37.0,24.4,30.03,SE,139,0.0,0.0,60,0.00,,,0.01,vanprod-2.5,2013-03-05 00:40:00,
2013-03-04 19:45:00,37.0,25.2,30.02,SE,131,0.0,0.0,62,0.00,,,0.01,vanprod-2.5,2013-03-05 00:45:00,
2013-03-04 19:50:00,36.9,24.7,30.02,ESE,118,0.0,1.0,61,0.00,,,0.01,vanprod-2.5,2013-03-05 00:50:00,
2013-03-04 19:55:00,36.9,24.7,30.02,ESE,117,0.0,1.0,61,0.00,,,0.01,vanprod-2.5,2013-03-05 00:55:00,
2013-03-04 20:00:00,36.9,24.7,30.02,ESE,118,0.0,1.0,61,0.00,,,0.01,vanprod-2.5,2013-03-05 01:00:00,
2013-03-04 20:05:00,36.9,24.7,30.02,ESE,118,0.0,0.0,61,0.00,,,0.01,vanprod-2.5,2013-03-05 01:05:00,
2013-03-04 20:10:00,36.8,25.0,30.01,ESE,117,0.0,1.0,62,0.00,,,0.01,vanprod-2.5,2013-03-05 01:10:00,
2013-03-04 20:15:00,36.6,25.2,30.01,ESE,116,0.0,0.0,63,0.00,,,0.01,vanprod-2.5,2013-03-05 01:15:00,
2013-03-04 20:20:00,36.4,25.4,30.01,ESE,116,0.0,1.0,64,0.00,,,0.01,vanprod-2.5,2013-03-05 01:20:00,
2013-03-04 20:25:00,36.3,25.7,30.01,ESE,118,0.0,1.0,65,0.00,,,0.01,vanprod-2.5,2013-03-05 01:25:00,
2013-03-04 20:30:00,36.0,26.1,30.01,ESE,109,0.0,1.0,67,0.00,,,0.01,vanprod-2.5,2013-03-05 01:30:00,
2013-03-04 20:35:00,35.7,26.5,30.01,ESE,109,0.0,0.0,69,0.00,,,0.01,vanprod-2.5,2013-03-05 01:35:00,
2013-03-04 20:40:00,35.5,27.4,30.01,ESE,109,0.0,0.0,72,0.00,,,0.01,vanprod-2.5,2013-03-05 01:40:00,
2013-03-04 20:45:00,35.1,27.7,30.01,ESE,109,0.0,0.0,74,0.00,,,0.01,vanprod-2.5,2013-03-05 01:45:00,
2013-03-04 20:50:00,34.9,27.8,30.01,ESE,109,0.0,0.0,75,0.00,,,0.01,vanprod-2.5,2013-03-05 01:50:00,
2013-03-04 20:55:00,34.7,28.2,30.01,ESE,109,0.0,0.0,77,0.00,,,0.01,vanprod-2.5,2013-03-05 01:55:00,
2013-03-04 21:00:00,34.5,28.0,30.01,ESE,109,0.0,0.0,77,0.00,,,0.01,vanprod-2.5,2013-03-05 02:00:00,
2013-03-04 21:05:00,34.4,28.3,30.01,ESE,109,0.0,0.0,78,0.00,,,0.01,vanprod-2.5,2013-03-05 02:05:00,
2013-03-04 21:10:00,34.3,28.2,30.01,ESE,109,0.0,1.0,78,0.00,,,0.01,vanprod-2.5,2013-03-05 02:10:00,
2013-03-04 21:15:00,34.4,28.3,30.01,ENE,75,0.0,0.0,78,0.00,,,0.01,vanprod-2.5,2013-03-05 02:15:00,
2013-03-04 21:20:00,34.3,28.5,30.01,ENE,75,0.0,0.0,79,0.00,,,0.01,vanprod-2.5,2013-03-05 02:20:00,
2013-03-04 21:25:00,34.1,28.6,30.02,ENE,75,0.0,0.0,80,0.01,,,0.02,vanprod-2.5,2013-03-05 02:25:00,
2013-03-04 21:30:00,34.0,28.8,30.02,ENE,76,0.0,0.0,81,0.01,,,0.02,vanprod-2.5,2013-03-05 02:30:00,
2013-03-04 21:35:00,33.9,29.0,30.02,ENE,72,0.0,1.0,82,0.01,,,0.02,vanprod-2.5,2013-03-05 02:35:00,
2013-03-04 21:40:00,33.8,28.9,30.02,East,81,0.0,0.0,82,0.01,,,0.02,vanprod-2.5,2013-03-05 02:40:00,
2013-03-04 21:45:00,33.7,29.4,30.02,East,101,0.0,0.0,84,0.01,,,0.02,vanprod-2.5,2013-03-05 02:45:00,
2013-03-04 21:50:00,33.5,29.2,30.02,East,100,0.0,1.0,84,0.01,,,0.02,vanprod-2.5,2013-03-05 02:50:00,
2013-03-04 21:55:00,33.4,29.4,30.02,East,100,0.0,1.0,85,0.01,,,0.02,vanprod-2.5,2013-03-05 02:55:00,
2013-03-04 22:00:00,33.4,29.4,30.02,ESE,106,0.0,1.0,85,0.01,,,0.02,vanprod-2.5,2013-03-05 03:00:00,
2013-03-04 22:05:00,33.3,29.3,30.02,SE,124,0.0,0.0,85,0.01,,,0.02,vanprod-2.5,2013-03-05 03:05:00,
2013-03-04 22:10:00,33.3,29.6,30.02,SE,124,0.0,1.0,86,0.01,,,0.02,vanprod-2.5,2013-03-05 03:10:00,
2013-03-04 22:15:00,33.4,29.4,30.02,East,96,0.0,1.0,85,0.01,,,0.02,vanprod-2.5,2013-03-05 03:15:00,
2013-03-04 22:20:00,33.4,29.7,30.02,ESE,120,0.0,0.0,86,0.01,,,0.02,vanprod-2.5,2013-03-05 03:20:00,
2013-03-04 22:25:00,33.3,29.3,30.02,ESE,120,0.0,0.0,85,0.00,,,0.02,vanprod-2.5,2013-03-05 03:25:00,
2013-03-04 22:30:00,33.3,29.6,30.03,ESE,120,0.0,0.0,86,0.00,,,0.02,vanprod-2.5,2013-03-05 03:30:00,
2013-03-04 22:35:00,33.3,29.6,30.03,ESE,120,0.0,0.0,86,0.00,,,0.02,vanprod-2.5,2013-03-05 03:35:00,
2013-03-04 22:41:00,33.3,29.6,30.03,ESE,120,0.0,0.0,86,0.00,,,0.02,vanprod-2.5,2013-03-05 03:41:00,
2013-03-04 22:46:00,33.3,29.3,30.03,ESE,105,0.0,1.0,85,0.00,,,0.02,vanprod-2.5,2013-03-05 03:46:00,
2013-03-04 22:51:00,33.4,29.4,30.03,ENE,76,1.0,2.0,85,0.00,,,0.02,vanprod-2.5,2013-03-05 03:51:00,
2013-03-04 22:56:00,33.4,29.7,30.03,ENE,77,0.0,1.0,86,0.01,,,0.03,vanprod-2.5,2013-03-05 03:56:00,
2013-03-04 23:01:00,33.3,29.9,30.03,East,83,0.0,0.0,87,0.01,,,0.03,vanprod-2.5,2013-03-05 04:01:00,
2013-03-04 23:06:00,33.1,29.7,30.04,East,87,1.0,1.0,87,0.01,,,0.03,vanprod-2.5,2013-03-05 04:06:00,
2013-03-04 23:11:00,33.0,30.1,30.04,East,90,0.0,1.0,89,0.01,,,0.03,vanprod-2.5,2013-03-05 04:11:00,
2013-03-04 23:16:00,32.8,29.9,30.04,East,98,0.0,0.0,89,0.01,,,0.03,vanprod-2.5,2013-03-05 04:16:00,
2013-03-04 23:21:00,32.7,30.1,30.04,East,95,1.0,0.0,90,0.01,,,0.03,vanprod-2.5,2013-03-05 04:21:00,
2013-03-04 23:26:00,32.7,30.1,30.04,East,83,2.0,2.0,90,0.01,,,0.03,vanprod-2.5,2013-03-05 04:26:00,
2013-03-04 23:31:00,32.7,30.1,30.04,ENE,78,2.0,2.0,90,0.01,,,0.03,vanprod-2.5,2013-03-05 04:31:00,
2013-03-04 23:36:00,32.7,30.1,30.04,East,87,2.0,2.0,90,0.01,,,0.03,vanprod-2.5,2013-03-05 04:36:00,
2013-03-04 23:41:00,32.6,30.0,30.04,ENE,71,2.0,2.0,90,0.01,,,0.03,vanprod-2.5,2013-03-05 04:41:00,
2013-03-04 23:46:00,32.5,30.2,30.04,East,85,2.0,2.0,91,0.01,,,0.03,vanprod-2.5,2013-03-05 04:46:00,
2013-03-04 23:51:00,32.5,30.2,30.04,ENE,77,2.0,2.0,91,0.01,,,0.03,vanprod-2.5,2013-03-05 04:51:00,
2013-03-04 23:56:00,32.4,30.1,30.03,East,81,3.0,3.0,91,0.01,,,0.03,vanprod-2.5,2013-03-05 04:56:00,